226  
ASUS43 KFGF 071231  
RWRFGF  
PRAIRIE TO PINES WEATHER ROUNDUP  
NATIONAL WEATHER SERVICE EASTERN NORTH DAKOTA/GRAND FORKS ND  
600 AM CST TUE FEB 07 2023  
 
**SATELLITE DATA USED TO AUGMENT SKY COVER AT AUTOMATED STATIONS**  
***** WEATHER ACROSS EASTERN NORTH DAKOTA *****  
 
CITY SKY/WX TMP DP RH WIND PRES REMARKS
 
GRAND FORKS FAIR 14 8 77 W7 29.85R WCI 4  
6HR MIN TEMP: 12; 6HR MAX TEMP: 26;  
 
GRAND FRKS AFB CLEAR 18 11 75 W7 29.83R WCI 8  
GRAND FRKS NWS N/A 13 11 90 NW2 29.81R  
DEVILS LAKE FAIR 13 10 88 SW8 29.79F WCI 2  
6HR MIN TEMP: 13; 6HR MAX TEMP: 21;  
 
FARGO FAIR 14 10 84 W12 29.88R WCI 0  
WAHPETON ARPT FAIR 14 10 85 W7 29.90R WCI 4  

 
 
***** WEATHER ACROSS CENTRAL AND WESTERN NORTH DAKOTA *****  
 
CITY SKY/WX TMP DP RH WIND PRES REMARKS
 
BISMARCK FAIR 23 16 74 SW5 29.91S WCI 17  
6HR MIN TEMP: 20; 6HR MAX TEMP: 27;  
 
MINOT FAIR 27 20 75 SW17 29.80S WCI 14  
6HR MIN TEMP: 24; 6HR MAX TEMP: 27;  
 
JAMESTOWN FAIR 22 16 78 W13 29.87R WCI 10  
6HR MIN TEMP: 21; 6HR MAX TEMP: 25;  
 
MINOT AFB FAIR 26 20 80 W16 29.77F WCI 13  
GARRISON N/A 20 15 81 SW8 29.84F WCI 10  
WILLISTON NOT AVBL  
DICKINSON FAIR 31 25 78 W18 29.87S WCI 19  
6HR MIN TEMP: 24; 6HR MAX TEMP: 31;  
 
HETTINGER FAIR 28 24 85 W9 29.95R WCI 19  
6HR MIN TEMP: 23; 6HR MAX TEMP: 30;  
 

 
 
***** OTHER AIRPORT OBSERVATIONS IN OUR AREA *****  
 
CITY SKY/WX TMP DP RH WIND PRES REMARKS
 
WALHALLA FAIR 19 14 79 CALM 29.82R  
GRAFTON AIRPOR FAIR 12 9 85 W6 29.85R WCI 3  
VALLEY CITY AR FAIR 18 16 93 W13 29.89R WCI 4  
CANDO FAIR 9 9 100 W6 29.83F WCI -1  
CAVALIER APRT FAIR N/A N/A N/A SW5 29.82R  
GWINNER SUNNY 14 16 100 W13 29.92R WCI 0  
ROLLA FAIR 12 10 92 S7 29.77F WCI 2  
***** THE ABOVE OBSERVATIONS ARE NON NWS ARE NOT QUALITY  
CONTROLLED AND MAY MIS-REPORT RAIN FOR SNOW...  

 
 
***** WEATHER ACROSS NORTHERN MINNESOTA *****  
 
CITY SKY/WX TMP DP RH WIND PRES REMARKS
 
FLAG ISLAND NOT AVBL  
WARROAD FAIR 19 14 79 W8 29.77R WCI 9  
ROSEAU N/A 18 12 79 W8 29.78R WCI 7  
HALLOCK FAIR 10 9 92 W5 29.83R WCI 2  
THF RVR FALLS FAIR 14 12 92 W9 29.82R WCI 2  
6HR MIN TEMP: 14; 6HR MAX TEMP: 30;  
 
BAUDETTE FAIR 23 11 60 NW15 29.72R WCI 10  
6HR MIN TEMP: 23; 6HR MAX TEMP: 34;  
 
WASKISH FAIR 25 18 74 W12 29.75R WCI 14  
CROOKSTON N/A 10 9 92 W7 29.87R WCI 0  
STEPHEN NDAWN N/A 12 9 85 VRB5 N/A WCI 4  
GREENBUSH NDAW N/A 9 7 92 MISG N/A  

 
***** WEATHER ACROSS CENTRAL AND WEST MINNESOTA *****  
 
CITY SKY/WX TMP DP RH WIND PRES REMARKS
 
FOSSTON FAIR 16 10 79 W7 29.83R WCI 6  
BEMIDJI FAIR 21 17 84 W13 29.77R WCI 9  
6HR MIN TEMP: 22; 6HR MAX TEMP: 31;  
 
PARK RAPIDS FAIR 21 17 84 NW12 29.77R WCI 9  
6HR MIN TEMP: 21; 6HR MAX TEMP: 32;  
 
ELBOW LAKE FAIR 12 10 92 NW10 29.89R WCI -1  
6HR MIN TEMP: 13; 6HR MAX TEMP: 30;  
 
WADENA FAIR 19 16 86 W8 29.83R WCI 9  
DETROIT LAKES FAIR 18 14 86 NW10 29.84R WCI 6  
MOORHEAD FAIR 18 12 79 W13 29.89R WCI 4  
FERGUS FALLS FAIR 16 10 79 NW9 29.87R WCI 4  
MORRIS MN N/A 19 12 73 NW14 29.90R WCI 6  
STAPLES FAIR 21 18 86 W13 29.82R WCI 9  

 
***** WEATHER ELSEWHERE ACROSS MINNESOTA *****  
 
CITY SKY/WX TMP DP RH WIND PRES REMARKS
 
DULUTH CLOUDY 30 26 85 W15G23 29.67R WCI 19  
6HR MIN TEMP: 26; 6HR MAX TEMP: 32;  
 
INTRNTL FALLS FAIR 23 11 60 NW17G28 29.67R WCI 9  
6HR MIN TEMP: 23; 6HR MAX TEMP: 32;  
 
ELY MOCLDY 30 25 80 NW10G17 29.61S WCI 21  
CLOQUET CLOUDY 30 27 86 W8 29.68R WCI 23  
WHEATON FAIR 21 16 79 W10 29.93R WCI 10  
BRAINERD FAIR 28 23 81 W8 29.78R WCI 20  
6HR MIN TEMP: 29; 6HR MAX TEMP: 34;  
 
HIBBING CLOUDY 30 25 81 W9G21 29.65R WCI 22  
6HR MIN TEMP: 28; 6HR MAX TEMP: 31; 6HR PCP: 0.01;  
 
ALEXANDRIA FAIR 18 13 80 W15 29.85R WCI 4  
6HR MIN TEMP: 18; 6HR MAX TEMP: 31;  
 
SAINT CLOUD CLOUDY 31 26 82 W12 29.80R WCI 22  
6HR MIN TEMP: 31; 6HR MAX TEMP: 35;  
 
MINNEAPOLIS MOCLDY 33 28 81 W16 29.83R WCI 23  
6HR MIN TEMP: 34; 6HR MAX TEMP: 35;  
 

 
 
***** WEATHER ACROSS SOUTH DAKOTA *****  
 
CITY SKY/WX TMP DP RH WIND PRES REMARKS
 
SIOUX FALLS FAIR 25 17 72 NW12 29.98R WCI 14  
6HR MIN TEMP: 25; 6HR MAX TEMP: 37;  
 
BROOKINGS FAIR 21 16 81 NW14 29.96R WCI 8  
WATERTOWN FAIR 21 15 78 W10 29.93R WCI 10  
6HR MIN TEMP: 21; 6HR MAX TEMP: 32;  
 
HURON FAIR 25 19 78 W12 30.00R WCI 14  
6HR MIN TEMP: 25; 6HR MAX TEMP: 33;  
 
SISSETON N/A 26 16 65 W14 29.91R WCI 14  
ABERDEEN FAIR 24 19 81 W10 29.97R WCI 14  
6HR MIN TEMP: 24; 6HR MAX TEMP: 30;  
 
MITCHELL FAIR 25 18 74 W12 30.04R WCI 14  
PIERRE FAIR 28 22 78 W10 30.01R WCI 19  
6HR MIN TEMP: 25; 6HR MAX TEMP: 33;  
 
MOBRIDGE FAIR 25 20 81 CALM 29.94R  
RAPID CITY FAIR 30 22 72 W8 30.03R WCI 22  
6HR MIN TEMP: 22; 6HR MAX TEMP: 34;  
 

 
 
***** SOME WEATHER IN NEARBY STATES *****  
 
CITY SKY/WX TMP DP RH WIND PRES REMARKS
 
GLASGOW MT FAIR 28 22 78 W5 29.88R WCI 23  
6HR MIN TEMP: 27; 6HR MAX TEMP: 31;  
 
GREAT FALLS MT FAIR 36 25 64 SW20G30 29.98R  
6HR MIN TEMP: 34; 6HR MAX TEMP: 37;  
 
CHEYENNE WY FAIR 24 11 57 W14 30.10S WCI 12  
6HR MIN TEMP: 22; 6HR MAX TEMP: 25;  
 
SCOTTSBLUFF NE FAIR 22 17 81 NW6 30.14R WCI 14  
6HR MIN TEMP: 21; 6HR MAX TEMP: 28;  
 
OMAHA NE FAIR 31 25 78 NW8 30.05R WCI 23  
6HR MIN TEMP: 30; 6HR MAX TEMP: 38;  
 
DES MOINES IA CLOUDY 36 31 82 W13G23 29.99R  
6HR MIN TEMP: 35; 6HR MAX TEMP: 36;  
 
DAVENPORT IA CLOUDY 35 30 82 W10 29.91R  
6HR MIN TEMP: 35; 6HR MAX TEMP: 51;  
 
CHICAGO IL MOCLDY 41 34 76 W14G33 29.80R  
6HR MIN TEMP: 41; 6HR MAX TEMP: 51;  
 
EAU CLAIRE WI CLOUDY 35 30 82 W9 29.75R  
6HR MIN TEMP: 33; 6HR MAX TEMP: 35;  
 
LA CROSSE WI CLOUDY 36 31 82 W10 29.78R  
6HR MIN TEMP: 36; 6HR MAX TEMP: 41;  
 

 
 
***** SOME NATIONAL WEATHER *****  
 
CITY SKY/WX TMP DP RH WIND PRES REMARKS
 
LA GUARDIA NY FAIR 30 17 58 N5 30.36R  
6HR MIN TEMP: 30; 6HR MAX TEMP: 34;  
 
RALEIGH NC MOCLDY 34 29 82 CALM 30.36R  
6HR MIN TEMP: 34; 6HR MAX TEMP: 45;  
 
ATLANTA GA MOCLDY 43 31 62 E3 30.27R  
6HR MIN TEMP: 41; 6HR MAX TEMP: 49;  
 
NEW ORLEANS LA CLOUDY 62 60 93 E5 30.12S  
6HR MIN TEMP: 56; 6HR MAX TEMP: 61; 6HR PCP: TRACE;  
 
OKLAHOMA CITY LGT RAIN 43 38 82 N14 30.10R  
6HR MIN TEMP: 43; 6HR MAX TEMP: 48; 6HR PCP: 0.03;  
 
ALBUQUERQUE NM LGT SNOW 32 31 96 NW7 30.12R FOG  
6HR MIN TEMP: 32; 6HR MAX TEMP: 38; 6HR PCP: 0.01;  
 
SALT LAKE CITY FAIR 26 23 88 S5 30.36S WCI 20  
6HR MIN TEMP: 26; 6HR MAX TEMP: 33;  
 
LOS ANGELES CA FAIR 51 32 48 NE3 30.21F  
6HR MIN TEMP: 48; 6HR M  
 
CLICK HERE TO GO TO PREVIOUS BULLETINS.

The Nexlab ND Page
The Nexlab MN Page Main Text Page